sat.trackr.live / text

‹ back to catalog

STARLINK-36560

NORAD 67585 · 2026-016AA

PAYLOAD ACTIVE UNKNOWN

§ Identity

Operator
Country
US
Launch date
2026-01-25
Launch site
AFWTR
Launch vehicle
Mass (kg)
RCS (m²)

Purposes: comms

External: N2YO · Heavens-Above · Gunter

§ Orbital elements

Epoch: 2026-09-19T21:31:29.185248Z

Period
93.91 min
Inclination
97.2866°
Eccentricity
0.0000210
Mean motion
15.33459381 rev/d
Perigee alt
465.4 km
Apogee alt
465.6 km
Semi-major
6,843.6 km
B*
3.6622e-4
RAAN
321.5029°
Arg perigee
107.9255°
Mean anomaly
252.2010°
Rev number
3,662

§ Raw data

STARLINK-365601 67585U 26016AA  26262.89686557  .00011771  00000+0  36622-3 0  99962 67585  97.2866 321.5029 0000210 107.9255 252.2010 15.33459381 36626

JSON: /api/v1/satellites/67585 · /tle

For live sub-satellite position, see the globe view (requires WebGL).

§ Visibility from observer

Set your observer location to see the next 7 days of passes ≥ 10°. The values pass through the URL so the page stays shareable.

No JS? Fill the form by hand. The geolocation button needs JavaScript.